Vancouver Sea Island Ccg, British Columbia

2:07 PM PST on February 12, 2016 (GMT -0800)
Vancouver International

Weather History for CYVR - November, 2013

Change the Weather History Date:

Sunday, November 3, 2013

  Actual Average Record
Temperature  
Mean Temperature 41 °F -  
Max Temperature 47 °F 49 °F 57 °F (1997)
Min Temperature 35 °F 39 °F 26 °F (2002)
Degree Days  
Heating Degree Days 24    
Moisture  
Dew Point 37 °F    
Average Humidity 84    
Maximum Humidity 93    
Minimum Humidity 69    
Precipitation  
Precipitation 0.00 in - - ()
Sea Level Pressure  
Sea Level Pressure 30.02 in    
Wind  
Wind Speed 4 mph ()    
Max Wind Speed 7 mph    
Max Gust Speed -    
Visibility 15.6 miles    
Events      
Averages and records for this station are not official NWS values.
T = Trace of Precipitation, MM = Missing Value Source: Averaged Metar Reports

Daily Weather History Graph

Daily Weather History Graph

Search for Another Location

Airport or City:

Trip Planner

Search our weather history database for the weather conditions in past years. The results will help you decide how hot, cold, wet, or windy it might be!

Date:

Astronomy

Nov. 03, 2013 Rise Set
Actual Time 7:04 AM PST 4:47 PM PST
Civil Twilight 6:30 AM PST 5:21 PM PST
Nautical Twilight 5:52 AM PST 5:58 PM PST
Astronomical Twilight 5:15 AM PST 6:35 PM PST
Moon 7:16 AM PST (11/3) 5:03 PM PST (11/3)
Length of Visible Light 10h 50m
Length of Day
9h 43m
New Moon, 0% of the Moon is Illuminated
Nov 3
New Moon
Nov 9
First Quarter
Nov 17
Full
Nov 25
Last Quarter
Dec 2
New

Hourly Weather History & Observations

Time (PST) Temp. Windchill Dew Point Humidity Pressure Visibility Wind Dir Wind Speed Gust Speed Precip Events Conditions
12:00 AM 41.0 °F 36.4 °F 39.2 °F 93% 29.86 in 12.0 mi East 6.9 mph - N/A   Mostly Cloudy
1:00 AM 39.2 °F 37.0 °F 37.4 °F 93% 29.88 in 15.0 mi East 3.5 mph - N/A   Scattered Clouds
1:00 AM 39.2 °F - 37.4 °F 93% 29.91 in 15.0 mi Calm Calm - N/A   Partly Cloudy
2:00 AM 39.2 °F 37.0 °F 37.4 °F 93% 29.94 in 15.0 mi NNE 3.5 mph - N/A   Scattered Clouds
3:00 AM 37.4 °F 32.8 °F - N/A% 29.94 in 15.0 mi NE 5.8 mph - N/A   Mostly Cloudy
4:00 AM 40 °F - 38 °F 89% 29.96 in 15 mi NNE 2.3 mph - -   Partly Cloudy
4:00 AM 41.0 °F 36.4 °F 37.4 °F 87% 29.96 in 15.0 mi North 6.9 mph - N/A   Scattered Clouds
5:00 AM 37.4 °F 32.8 °F 35.6 °F 93% 29.98 in 15.0 mi NE 5.8 mph - N/A   Scattered Clouds
5:12 AM 37.4 °F 34.9 °F 35.6 °F 93% 29.98 in 15.0 mi ESE 3.5 mph - N/A   Scattered Clouds
6:00 AM 37.4 °F 33.8 °F 35.6 °F 93% 29.99 in 15.0 mi ENE 4.6 mph - N/A   Partly Cloudy
6:51 AM 35.6 °F - 33.8 °F 93% 30.00 in 20.0 mi Variable 2.3 mph - N/A   Partly Cloudy
7:00 AM 35.6 °F 32.8 °F 33.8 °F 93% 30.00 in 20.0 mi North 3.5 mph - N/A   Partly Cloudy
8:00 AM 37.4 °F - 35.6 °F 93% 30.02 in 30.0 mi ESE 2.3 mph - N/A   Mostly Cloudy
9:00 AM 41.0 °F 39.0 °F 37.4 °F 87% 30.03 in 30.0 mi East 3.5 mph - N/A   Partly Cloudy
10:00 AM 44 °F - 38 °F 71% 30.05 in 28 mi East 3.5 mph - -   Scattered Clouds
10:00 AM 44.6 °F 43.1 °F 37.4 °F 76% 30.04 in 30.0 mi ESE 3.5 mph - N/A   Partly Cloudy
11:00 AM 44.6 °F 43.1 °F 39.2 °F 81% 30.06 in 30.0 mi SE 3.5 mph - N/A   Scattered Clouds
12:00 PM 46.4 °F - 39.2 °F 76% 30.05 in 30.0 mi SW 2.3 mph - N/A   Scattered Clouds
1:00 PM 46.4 °F 42.9 °F 37.4 °F 71% 30.06 in 30.0 mi SW 6.9 mph - N/A   Partly Cloudy
2:00 PM 46.4 °F 44.3 °F 37.4 °F 71% 30.06 in 30.0 mi West 4.6 mph - N/A   Partly Cloudy
3:00 PM 46.4 °F 44.3 °F 39.2 °F 76% 30.07 in 30.0 mi WNW 4.6 mph - N/A   Partly Cloudy
4:00 PM 46 °F - 39 °F 69% 30.07 in 28 mi WNW 5.8 mph - -   Scattered Clouds
4:00 PM 46.4 °F 42.9 °F 39.2 °F 76% 30.07 in 30.0 mi WNW 6.9 mph - N/A   Scattered Clouds
5:00 PM 42.8 °F 41.1 °F 37.4 °F 81% 30.06 in 30.0 mi NW 3.5 mph - N/A   Partly Cloudy
6:00 PM 42.8 °F - 37.4 °F 81% 30.07 in 20.0 mi North 2.3 mph - N/A   Partly Cloudy
7:00 PM 41.0 °F 37.1 °F 35.6 °F 81% 30.08 in 15.0 mi ENE 5.8 mph - N/A   Mostly Cloudy
8:00 PM 37.4 °F 34.9 °F 32.0 °F 81% 30.09 in 15.0 mi ESE 3.5 mph - N/A   Partly Cloudy
9:00 PM 39.2 °F 35.0 °F 33.8 °F 81% 30.10 in 15.0 mi ENE 5.8 mph - N/A   Clear
10:00 PM 38 °F - 34 °F 78% 30.12 in 15 mi ENE 4.6 mph - -  
10:00 PM 39.2 °F 35.0 °F 33.8 °F 81% 30.11 in 15.0 mi NE 5.8 mph - N/A   Clear
10:23 PM 35.6 °F 32.8 °F 32.0 °F 87% 30.11 in 15.0 mi ENE 3.5 mph - N/A   Clear